User: anonymous   Login
Location: Vancouver
(49.2500°N, 123.1330°W)
Time: 05:28:36
(UTC-07:00)
Language:

Iridium 35 - Orbit

View from above orbital plane
View from above orbital plane
View from above satellite
View from above satellite

Ground track
Ground track

The orbit data is extracted from the following two-line orbital elements,

1 24966U 97056B   17200.36817646 +.00000141 +00000-0 +43230-4 0  9997
2 24966 086.3976 305.2359 0002281 094.4677 265.6780 14.34217832037149
Epoch (UTC): 19 July 2017 08:50:10
Eccentricity: 0.0002281
inclination: 86.3976°
perigee height: 776 km
apogee height: 779 km
right ascension of ascending node: 305.2359°
argument of perigee: 94.4677°
revolutions per day: 14.34217832
mean anomaly at epoch: 265.6780°
orbit number at epoch: 3714

The dashed part of the orbit path shows where the satellite is in the earth's shadow,  

DLR